map of CWC home
Great Circle Mapper logo
CWC - Airport
Location
City:  Chernivtsi, Ukraine
Near (Alt.):Chernovtsy
ICAO / IATA:UKLN / CWC

Details
Type:Airport (Aerodrome, Airfield)
Use:Public/Civil, International (customs port of entry)
Latitude:4815'34"N (48.259322)
Longitude:2558'51"E (25.980831)
Datum:WGS 1984
Elevation:826 ft (252 m)
Variation:5.9E (WMM2015 magnetic declination)
Runways:1
Longest:7270 × 138 ft (2216 × 42 m), paved

Time
Time Zone:UTC+2 (DST+3)
Local Time:

Weather
METAR:UKLN 221600Z 23003MPS 9999 BKN040 06/M01 Q1010 1509//70 TEMPO 29011G16MPS

Related Locations
Nearby:
Farthest:CHT: 11321 mi / 18220 km
Waitangi [Tuuta], Chatham Islands, NZ

Find:

   beyond  
but within

Other Information
Maps:
NOTAMs:
Links:
Sources:

  
flag of Ukraine   

Sectional Chart

Flight Planning
at skyvector.com

Satellite Image

Google Maps Satellite View

 

Copyright © 2004-2014 Karl L. Swartz. All rights reserved.
The Great Circle Mapper name and logo are trademarks of the Great Circle Mapper.
All other trademarks mentioned herein belong to their respective owners.
Please see credits for attibutions and further copyright information.

  Follow gcmap on Facebook Follow gcmap on Twitter

hCard Microformat

Geo Microformat